Theta_e
304 305 306 305 305 307 304 299 290 302 314 297 296 292 297 298 296 299 297 297 294 292 291 290 288 287 291 295 294 290 293 292 281 284 288 288 288 287 287 282 279 280 280 286
303 303 304 305 305 306 297 293 291 301 308 288 289 294 297 298 297 297 296 295 296 295 293 290 290 289 294 296 294 291 294 288 279 282 286 286 285 288 292 288 283 281 280 286
301 302 302 302 305 305 297 291 285 291 296 297 292 290 291 293 300 298 299 297 298 295 293 295 291 291 294 296 295 298 298 291 286 284 285 288 283 285 288 290 285 285 286 289
301 302 301 301 301 305 295 289 288 288 286 288 290 291 293 290 291 298 299 295 296 294 291 293 292 294 292 294 296 296 295 288 288 291 290 289 287 286 288 287 289 287 290 289
300 301 301 302 300 303 294 287 287 290 286 289 290 290 288 288 290 292 294 294 296 296 292 293 291 294 294 294 293 293 294 289 290 288 291 288 286 287 289 289 290 290 291 291
299 300 301 301 302 302 292 292 294 292 288 286 284 286 289 288 291 293 294 292 294 293 296 299 300 299 299 298 295 293 293 290 288 285 289 286 284 289 288 288 291 290 287 292
298 298 299 301 301 300 295 293 291 287 283 285 285 287 288 289 291 291 293 295 293 296 297 298 297 296 297 298 295 296 288 290 289 286 286 280 290 295 295 292 292 292 291 293
298 298 298 300 300 300 294 293 292 287 282 286 285 286 288 289 291 291 290 293 294 296 294 287 286 286 287 291 293 293 295 290 286 283 284 287 288 286 288 289 291 296 294 295
297 297 297 298 299 300 296 293 293 290 283 283 288 284 285 284 284 284 287 286 288 292 288 285 282 280 284 285 286 292 294 294 287 283 281 280 286 286 290 292 287 294 295 296
297 297 297 297 298 299 296 291 294 289 284 288 287 285 282 285 282 277 284 285 287 288 285 283 281 281 286 283 281 280 286 288 284 284 284 286 283 281 287 285 286 278 282 285
297 296 296 297 297 298 297 290 293 288 285 288 290 290 285 286 284 281 279 286 285 285 284 284 283 283 283 283 283 282 284 285 285 286 283 281 285 283 287 286 281 283 283 285
296 296 296 296 296 297 297 287 293 294 286 286 289 291 290 292 291 288 285 284 281 287 286 285 284 284 283 284 281 284 282 287 284 285 285 286 285 286 285 284 285 286 286 285
296 296 296 296 296 296 296 291 291 290 284 285 285 286 289 290 291 293 286 286 289 287 289 287 286 283 282 281 282 279 283 284 285 285 285 283 282 283 283 282 283 283 285 284
295 295 295 295 295 295 295 290 292 289 285 281 282 286 286 288 290 290 292 290 288 288 287 285 284 283 285 280 281 283 283 285 283 282 283 282 285 283 284 283 281 281 282 283
295 294 294 294 294 295 292 290 293 293 285 280 280 282 284 285 287 287 289 290 286 285 283 283 282 281 280 276 281 280 281 282 283 282 285 287 286 286 285 285 283 282 282 281
294 294 294 294 294 294 288 280 289 293 292 282 275 280 279 283 286 288 288 288 286 285 284 283 283 282 282 279 279 284 283 283 286 285 285 285 283 285 285 286 283 282 281 281
293 293 293 293 293 288 284 278 285 294 293 283 277 270 281 282 284 283 283 285 284 284 283 281 280 280 282 280 276 279 280 281 279 281 283 283 281 281 284 283 282 280 278 278
292 293 293 293 293 292 286 289 293 295 287 284 277 273 277 282 279 279 282 281 282 281 281 277 278 279 280 276 279 275 274 278 278 277 278 279 279 279 278 278 277 278 277 276
292 292 292 290 287 282 281 293 293 292 285 279 274 272 271 281 280 279 279 280 276 277 271 276 276 274 275 273 273 270 267 268 269 271 275 276 275 275 275 274 273 274 274 273
292 288 283 279 281 290 291 283 279 282 283 281 276 270 267 279 277 275 273 273 272 268 270 275 270 264 268 265 264 264 264 264 265 269 271 270 270 272 272 271 271 272 272 270
285 278 278 281 289 282 278 274 273 270 275 280 274 274 275 280 271 270 276 269 265 266 267 268 261 262 266 263 261 261 261 262 262 263 266 267 266 268 269 267 266 266 266 264
283 281 284 283 273 270 275 269 267 270 269 276 271 273 279 279 278 275 272 269 266 265 261 263 262 264 258 257 257 258 257 256 257 259 260 261 261 261 261 260 260 259 260 260
285 282 277 275 268 268 269 265 266 267 271 271 271 274 276 279 279 276 274 271 268 269 265 263 259 258 256 254 254 254 254 255 255 256 257 257 256 256 255 256 256 256 256 255
277 272 266 269 264 265 264 266 263 268 269 268 279 274 276 278 276 276 270 272 272 264 264 262 253 253 252 252 251 249 251 252 254 253 254 254 254 253 253 252 252 253 253 252
274 274 264 262 261 265 258 262 268 269 274 279 276 277 278 275 274 274 271 267 266 263 261 251 253 252 252 251 250 249 250 251 251 250 251 252 252 252 252 251 251 252 252 252
267 261 262 254 258 259 262 260 264 264 263 280 279 275 273 271 272 269 263 266 261 254 247 251 252 251 251 250 250 250 251 250 250 249 249 251 251 250 248 250 251 251 251 251
262 257 250 249 254 255 256 256 257 260 259 274 276 271 269 269 259 253 252 248 249 249 250 252 252 251 250 250 251 251 251 251 250 249 250 248 247 249 252 251 248 249 249 250
Wind_Speed
9 12 16 14 11 10 0 3 6 4 10 10 6 16 6 7 10 13 4 2 9 8 9 10 10 14 9 9 8 14 10 4 6 10 4 3 1 4 7 6 7 6 3 18
12 8 12 15 15 12 2 4 5 5 9 9 14 13 16 14 8 13 16 13 12 10 10 5 8 6 7 5 13 12 11 5 2 6 4 3 5 7 15 2 4 11 6 14
13 14 9 13 18 14 4 4 4 4 5 7 12 18 21 12 15 13 7 10 14 8 12 12 7 6 7 10 11 9 12 6 12 19 4 10 8 9 13 19 11 9 23 18
16 14 13 11 18 18 5 4 5 5 6 13 17 16 6 22 22 14 19 8 16 17 10 14 18 16 6 5 7 8 15 15 9 23 8 9 10 13 21 24 33 13 34 20
17 16 14 15 14 16 7 4 5 3 5 2 15 17 22 26 15 4 14 16 19 25 22 19 18 17 10 20 4 6 1 15 16 26 18 9 7 11 26 31 29 27 29 34
17 18 16 16 13 14 4 5 6 4 8 14 7 8 10 22 16 12 17 16 18 20 23 22 21 10 6 12 16 15 19 13 13 23 14 4 6 38 11 16 22 23 25 38
19 18 17 19 18 9 2 4 2 7 11 9 16 9 12 18 14 8 3 10 20 5 4 3 5 7 14 15 8 12 6 19 13 17 6 17 27 15 25 27 22 18 20 28
21 20 18 20 22 18 4 3 4 5 5 10 10 9 9 3 2 6 2 5 2 3 4 2 5 3 4 14 17 15 14 11 7 9 15 10 14 5 9 13 31 29 26 29
21 18 19 18 21 21 6 5 5 7 6 9 16 16 12 12 8 2 4 1 3 3 3 4 7 5 2 3 4 14 21 19 13 4 11 13 9 5 6 7 19 12 20 28
21 21 20 20 19 22 7 4 4 3 9 7 6 6 7 5 5 4 4 6 3 1 4 4 4 4 2 5 4 2 10 16 21 18 13 6 4 5 4 12 9 1 0 2
21 20 19 19 19 19 14 4 6 3 5 9 8 10 7 1 5 8 4 4 1 2 6 5 5 6 8 4 5 7 6 8 12 11 12 19 9 3 12 4 1 4 2 3
21 18 18 19 17 18 15 4 4 4 6 4 2 6 4 11 11 7 5 3 5 6 5 5 3 3 3 8 7 4 6 8 3 5 3 3 5 2 2 2 4 3 2 2
22 20 20 19 19 18 15 3 3 2 4 5 4 7 6 1 5 5 5 2 4 4 1 3 4 6 4 7 8 2 5 5 5 3 4 4 4 1 2 2 1 2 1 3
20 20 18 17 17 17 15 5 3 3 3 4 3 3 3 3 6 3 3 5 4 3 2 2 2 4 2 3 2 5 3 10 8 4 4 1 8 8 5 3 2 2 0 2
20 18 16 16 16 16 9 3 6 6 3 3 1 4 4 3 6 8 7 7 5 3 3 3 4 2 2 1 1 4 5 6 6 5 3 4 3 9 9 8 6 6 6 2
18 18 17 18 16 15 3 3 6 10 6 3 2 1 2 2 4 9 9 6 3 3 3 3 2 0 2 3 4 4 3 2 4 2 3 2 1 4 5 8 8 5 3 1
19 18 18 17 17 6 6 6 4 12 9 3 4 3 3 4 1 1 2 3 2 2 2 3 2 2 3 2 3 3 3 5 2 4 1 1 2 2 6 7 4 6 5 4
16 17 18 18 19 16 11 9 15 4 4 5 4 1 1 4 2 3 1 3 2 1 2 1 3 2 1 4 1 4 8 3 8 10 7 3 6 4 5 5 4 5 5 3
13 14 13 3 3 3 5 10 13 4 2 5 4 10 6 6 2 2 2 2 2 2 2 3 4 1 5 1 3 4 10 6 9 10 6 8 10 7 5 5 5 5 3 2
11 4 3 3 4 4 8 0 1 3 4 6 2 2 3 7 4 2 4 2 3 2 4 3 2 3 5 6 7 6 8 10 11 2 4 7 7 7 5 6 5 4 4 4
2 3 3 3 3 3 3 5 5 4 4 5 4 5 5 2 4 4 2 4 2 4 6 6 2 4 5 4 6 7 8 8 7 5 5 5 4 4 4 6 7 6 6 5
4 5 2 1 3 1 6 6 3 6 9 3 6 5 4 4 2 3 3 4 2 6 3 5 3 2 5 5 6 7 8 8 7 6 6 7 8 7 5 5 6 6 5 5
2 3 4 3 3 3 6 7 6 4 2 6 6 6 4 4 3 3 4 6 5 7 3 5 2 5 5 5 4 3 6 5 4 5 5 6 6 8 7 5 5 5 6 6
5 5 4 6 5 6 5 5 5 5 2 4 15 4 4 3 5 3 4 3 6 3 4 7 1 2 2 3 3 3 5 5 5 5 5 6 7 8 7 7 5 5 7 6
2 3 8 6 3 1 3 3 4 4 4 8 4 4 2 2 4 3 5 3 5 6 6 2 2 3 3 4 3 4 4 4 4 4 3 6 6 7 8 7 6 6 7 8
3 7 3 3 4 3 4 6 5 7 9 5 1 4 4 3 3 4 2 7 7 3 2 1 3 3 4 3 3 4 3 4 4 4 4 7 7 7 5 6 9 8 7 9
3 2 3 2 4 3 3 5 6 9 7 1 3 4 3 5 6 4 4 1 1 2 3 3 4 4 3 3 5 5 5 6 6 5 6 4 3 4 9 12 5 5 6 6
Wind_Direction
343 327 262 248 241 251 111 246 235 263 151 196 218 237 219 190 189 226 209 244 190 203 198 188 202 212 215 184 151 187 199 187 189 202 223 244 177 219 162 147 213 231 185 254
267 290 337 265 229 225 148 240 243 291 187 212 219 237 240 227 196 196 210 211 212 209 175 224 216 197 229 178 170 171 166 219 24 330 345 351 211 208 213 76 63 216 185 259
265 251 251 307 244 225 135 291 251 223 216 251 225 221 237 238 207 223 246 223 225 210 226 200 232 223 216 202 201 204 165 170 206 233 190 151 198 198 203 208 232 220 238 259
267 261 240 228 293 239 148 213 238 234 194 226 233 243 257 233 238 227 195 224 235 215 227 229 237 221 211 213 217 198 172 223 214 241 226 190 197 196 205 209 226 206 252 237
252 256 253 242 230 266 218 219 218 255 252 214 215 224 235 245 254 273 228 227 216 213 228 221 233 222 211 225 180 190 241 237 229 255 242 198 230 232 217 212 225 232 252 259
259 259 249 244 235 226 226 212 248 255 245 237 228 223 230 238 236 224 228 262 261 229 229 236 247 253 240 232 214 221 207 217 225 246 234 163 259 235 194 219 224 216 233 246
254 252 251 248 238 206 102 283 232 239 248 227 221 222 215 235 247 278 165 226 232 236 153 321 285 259 254 236 220 203 203 217 213 239 149 223 241 242 220 224 234 226 252 258
245 246 246 247 247 240 189 198 258 233 257 227 237 243 221 260 283 212 236 277 193 180 78 106 279 212 209 228 221 199 205 199 223 226 224 267 281 198 165 185 243 232 236 253
248 248 252 251 251 247 239 198 245 250 236 241 236 222 207 225 231 248 209 12 327 135 163 170 204 219 256 214 259 218 208 204 207 177 228 230 270 181 184 116 251 203 213 240
239 240 244 249 251 246 204 221 177 286 239 231 200 214 206 159 162 189 154 172 182 71 168 212 189 222 150 217 191 201 206 204 211 220 240 247 230 219 142 168 242 310 106 321
233 234 242 246 247 250 234 233 206 169 280 211 216 205 185 188 184 197 190 120 154 169 195 208 192 208 202 186 177 171 215 208 217 228 236 237 155 100 192 203 150 171 215 212
228 233 238 245 246 245 239 216 210 191 244 288 239 213 239 220 196 190 200 185 165 183 189 187 192 205 170 182 234 147 221 195 207 229 255 316 209 27 54 162 153 195 186 235
224 225 233 242 245 245 238 214 178 150 239 237 191 204 214 158 212 167 152 217 184 199 259 167 199 226 146 174 226 145 244 170 181 121 222 251 281 273 243 250 200 116 91 170
223 228 232 239 249 252 245 214 194 169 267 278 248 1 189 235 161 173 136 126 79 105 167 230 202 234 197 215 287 222 183 147 172 253 199 282 256 218 199 172 43 69 299 90
223 230 235 244 249 250 247 226 203 207 198 300 307 320 233 269 172 156 144 142 144 163 171 199 211 154 134 263 47 246 196 175 183 212 186 170 247 195 168 157 166 184 87 68
228 227 235 240 240 242 148 255 216 197 188 243 244 239 297 131 221 167 162 145 128 174 195 184 207 323 174 193 202 245 208 342 353 313 151 77 52 65 144 160 166 134 126 145
227 228 232 239 241 215 203 196 221 190 162 220 235 255 197 134 107 86 105 115 150 174 176 197 176 202 189 207 215 359 4 137 74 4 71 111 36 95 153 141 111 91 84 65
224 227 236 244 244 243 234 237 268 249 198 185 219 184 135 135 191 138 150 126 131 200 146 89 178 147 217 232 210 38 356 43 56 16 359 29 98 65 62 57 101 101 100 89
218 229 241 254 214 190 222 198 232 192 165 286 142 156 192 151 171 120 92 132 157 17 168 212 117 151 214 37 21 41 14 11 329 326 14 58 71 68 53 79 37 96 94 81
214 144 193 214 213 228 150 117 206 209 207 196 194 27 173 161 172 124 109 85 159 156 238 101 127 230 92 59 45 34 6 359 348 344 39 21 46 38 41 43 30 58 75 74
147 157 210 240 273 101 133 190 180 217 219 198 156 165 147 184 140 138 229 160 166 144 238 148 211 271 150 50 49 26 7 358 13 7 44 42 41 21 50 45 31 36 44 40
176 163 132 93 54 12 241 180 268 173 197 176 156 185 142 131 128 124 184 139 87 200 142 97 216 136 65 31 16 15 5 358 4 8 32 38 44 20 50 40 28 21 18 19
95 208 156 150 249 210 247 194 265 163 172 177 167 135 146 120 183 172 166 153 184 130 86 213 197 100 56 22 4 1 3 6 18 26 34 50 53 41 36 45 22 24 36 17
185 156 198 188 206 222 204 193 202 249 172 192 144 135 160 155 155 143 129 111 132 94 161 230 126 71 32 31 21 35 4 8 32 34 48 61 63 58 43 38 26 46 50 23
241 193 207 199 234 137 230 245 292 349 274 141 101 97 101 138 136 159 122 116 173 195 211 117 106 72 57 38 24 33 33 27 25 8 51 73 68 73 65 31 32 46 55 57
62 21 314 296 71 8 1 17 328 5 328 155 113 129 176 142 147 130 87 145 198 150 99 73 102 79 74 67 46 50 52 52 46 35 37 71 65 77 82 59 47 45 53 65
64 48 5 294 60 90 40 4 341 327 304 229 139 140 93 95 71 65 18 85 53 115 79 64 68 86 92 85 80 66 63 64 54 49 48 44 34 70 76 71 18 50 53 69